Wind_Speed
9 10 12 13 14 16 17 19 20 22 24 25 26 28 29 29 30 31 32 33 33 33 33 33 33 34 34 35 35 36 36 36 36 37 39 39 39 39 39 39 40 41 42
10 12 13 14 16 17 19 21 22 24 26 27 29 30 31 32 33 34 34 35 35 35 35 34 34 35 35 35 35 35 36 36 36 36 38 39 40 40 40 40 40 41 42
12 14 15 16 18 20 21 23 25 27 28 30 31 32 33 34 35 36 36 36 36 35 35 35 35 35 35 35 35 35 36 36 36 37 37 39 40 41 41 41 41 42 43
14 16 17 18 20 22 24 25 27 29 31 32 33 34 35 36 37 38 38 38 37 37 36 36 36 35 35 35 35 35 35 35 36 37 37 39 39 41 42 42 43 43 43
17 18 20 22 23 24 26 28 30 32 33 34 35 36 37 38 39 39 39 39 38 38 37 37 36 35 35 35 35 35 35 35 35 36 37 38 39 40 41 42 43 44 44
19 21 23 24 25 27 29 30 32 34 35 36 37 38 38 40 40 40 40 39 39 38 38 37 36 36 35 35 35 34 35 35 35 36 36 37 38 39 40 41 42 43 44
22 24 25 26 28 29 31 32 34 36 37 38 38 39 40 41 42 41 41 40 39 38 38 37 37 36 35 34 34 34 34 35 35 36 36 37 38 39 40 40 41 42 43
25 26 27 28 30 31 33 34 36 37 38 39 39 40 41 42 42 42 41 40 39 39 38 37 37 36 36 34 33 33 33 34 35 35 35 36 38 39 40 41 41 41 42
27 28 29 30 32 33 35 36 37 39 40 41 41 41 42 42 43 42 42 40 39 39 38 38 37 36 35 34 32 32 33 34 35 35 35 36 37 39 40 41 42 42 42
29 31 32 33 34 35 36 38 39 40 42 42 42 42 43 43 43 42 42 41 39 39 38 38 37 36 34 34 33 33 33 34 35 35 36 36 38 39 40 41 42 42 43
32 33 34 35 37 38 39 40 41 42 43 43 43 44 44 43 43 42 42 41 40 39 38 37 36 35 34 34 33 33 33 34 34 35 36 37 38 39 39 40 41 42 43
34 35 36 38 39 40 41 42 42 43 43 43 44 44 44 44 43 43 42 42 40 39 38 37 36 35 34 34 34 34 33 33 33 33 34 35 36 37 38 40 41 42 43
36 37 38 40 41 42 43 44 44 45 44 44 45 45 45 45 44 43 42 42 40 39 38 36 35 35 34 33 33 33 32 32 31 31 32 33 35 36 37 39 40 41 43
38 40 41 42 42 43 44 45 46 46 45 46 46 46 46 46 45 43 42 42 40 39 37 36 35 34 33 32 32 31 31 30 29 29 29 30 32 34 36 37 39 41 42
41 42 42 43 44 45 46 46 47 47 47 47 48 48 48 47 46 44 42 42 40 38 36 35 34 33 31 31 30 30 30 29 28 28 27 27 28 30 32 35 37 39 40
42 43 44 45 46 47 48 48 48 49 49 49 49 49 49 49 47 44 43 41 39 37 35 34 33 32 30 30 29 29 29 28 27 26 25 25 25 27 28 31 34 37 39
44 46 46 47 48 49 49 50 50 50 51 51 51 51 50 48 46 44 42 39 38 36 35 34 33 32 30 29 29 28 27 26 25 24 24 24 24 25 26 28 30 33 36
46 47 48 49 50 51 51 52 53 53 52 51 51 50 49 47 45 43 40 38 36 35 34 33 32 30 29 29 28 26 25 25 24 23 23 23 23 23 24 26 28 31 33
48 50 51 52 52 53 53 54 54 54 53 52 51 49 48 46 43 40 38 36 35 34 33 32 30 29 28 27 26 25 25 24 23 22 22 22 22 22 22 24 26 29 31
50 52 52 53 54 54 55 55 55 54 54 52 51 48 46 44 41 38 36 35 34 32 31 30 29 27 26 26 25 24 23 22 21 20 20 20 20 20 21 22 24 26 29
52 53 54 54 55 55 56 55 55 54 53 51 48 46 43 41 39 36 34 33 31 30 29 29 27 26 25 25 24 22 21 20 19 18 18 18 18 18 19 21 23 25 27
53 54 55 56 56 56 56 55 54 53 50 48 45 43 41 39 37 34 32 30 29 28 28 27 25 24 23 23 23 21 20 19 18 17 16 15 15 17 18 19 21 23 25
55 56 56 57 56 56 55 53 52 49 47 44 41 39 39 37 34 32 30 29 28 27 26 25 24 23 22 22 21 19 18 17 17 16 15 15 15 15 16 17 18 21 23
56 56 56 55 54 53 51 49 47 44 42 40 37 35 34 31 29 27 26 25 25 24 23 22 21 21 20 20 19 17 16 15 15 15 14 14 14 14 15 16 17 18 21
55 54 53 52 50 48 46 43 41 39 37 35 32 30 28 26 25 24 23 22 22 21 20 19 19 18 18 18 17 16 15 14 14 13 13 13 13 13 14 14 16 18 20
51 50 49 47 45 42 39 37 34 32 30 29 27 25 23 22 22 20 19 19 19 18 18 18 17 17 16 16 15 15 14 13 12 12 12 12 12 13 14 14 15 17 18
Wind_Direction
321 325 326 326 325 326 327 329 329 329 328 328 327 325 324 321 319 317 314 312 309 306 302 298 294 290 286 282 279 275 271 267 263 259 257 254 252 249 247 245 242 241 239
318 320 320 320 321 323 324 324 325 326 325 324 324 323 322 321 319 317 315 313 311 307 304 300 295 291 288 284 280 276 272 268 264 260 257 255 252 250 247 245 243 241 239
311 312 313 315 316 318 319 319 320 321 322 322 322 322 321 320 319 317 315 313 310 308 305 301 297 293 289 285 282 278 274 269 265 261 258 256 254 250 247 246 244 242 240
306 309 311 311 312 314 316 317 318 319 320 321 321 320 320 319 319 317 315 313 310 308 305 302 298 295 291 287 283 279 275 271 267 263 259 256 254 251 247 245 244 242 240
303 307 310 310 310 311 313 315 317 318 319 319 319 319 319 319 319 317 316 313 311 308 305 302 300 297 293 289 285 280 276 273 269 265 260 256 253 251 249 245 243 241 240
302 304 306 308 309 310 312 314 315 316 316 317 317 319 319 318 318 317 316 313 310 307 305 302 300 297 294 290 286 282 277 274 270 266 262 257 253 251 249 246 243 241 240
299 301 303 305 308 309 311 312 313 314 315 315 315 317 318 318 318 318 316 314 311 308 305 303 300 298 296 292 288 283 279 275 271 267 262 258 254 251 249 247 244 241 238
297 300 302 304 306 307 309 311 312 314 315 315 315 316 317 317 317 317 316 314 311 308 306 303 301 299 296 293 289 284 280 277 272 267 262 259 256 252 249 246 243 241 238
296 299 301 303 304 305 307 309 310 312 314 315 315 316 317 317 316 316 315 314 312 309 306 303 301 299 296 293 290 287 283 279 275 270 265 261 257 253 250 247 244 241 238
296 298 299 301 302 304 306 308 310 312 313 314 315 315 316 316 315 315 314 314 312 309 306 303 301 299 296 294 291 288 285 280 277 273 268 263 258 254 251 248 244 241 237
295 297 298 300 302 304 306 308 309 311 312 313 313 314 314 315 314 314 313 312 311 308 305 303 300 298 296 294 292 290 287 283 279 274 269 264 260 255 251 247 243 240 237
293 295 297 299 301 303 305 307 309 310 311 311 312 313 313 313 313 312 311 310 309 307 305 303 300 298 296 293 291 291 289 286 281 276 271 265 260 255 251 247 243 240 236
293 295 297 299 301 303 304 306 307 309 309 309 311 311 311 311 310 310 310 309 308 307 305 303 300 298 296 294 292 291 290 287 283 278 273 267 261 255 250 246 243 240 236
294 295 296 298 299 301 303 305 305 307 308 308 309 309 310 310 309 309 308 307 307 306 305 303 301 299 297 295 293 292 291 288 284 280 276 269 263 257 251 246 242 238 235
293 294 295 297 299 301 302 303 304 305 306 306 307 307 307 308 307 306 306 306 305 304 303 302 302 300 297 295 294 293 292 290 286 282 278 272 265 258 252 246 241 237 234
293 294 295 296 297 299 300 301 302 303 304 304 305 305 305 306 305 304 304 304 303 302 302 301 300 299 297 295 294 294 292 289 285 283 279 272 266 259 252 246 240 235 232
293 294 294 296 297 297 299 300 300 301 302 303 303 303 304 304 303 302 302 301 300 300 300 300 300 298 297 295 295 294 291 288 284 281 278 273 266 259 252 245 239 234 231
292 293 294 295 296 297 298 299 299 300 300 301 301 301 301 301 300 299 298 298 298 298 299 299 299 298 296 295 294 293 291 287 284 281 277 272 266 259 251 244 239 235 230
293 294 294 295 296 297 297 298 299 299 299 300 299 298 298 297 296 295 294 295 296 296 297 298 297 296 296 295 293 292 291 287 284 281 277 271 265 258 249 243 237 232 229
293 294 294 295 296 296 297 297 298 298 298 298 297 296 295 294 293 292 293 293 293 294 295 296 297 297 296 295 293 291 289 288 284 281 277 271 265 257 247 240 235 231 228
294 294 295 295 296 296 296 296 296 296 296 295 294 293 292 291 290 289 290 290 289 290 293 296 297 296 296 297 294 290 288 286 284 280 277 270 263 253 245 239 235 231 228
294 294 295 295 295 295 295 295 295 295 294 293 291 289 288 287 287 286 285 287 286 288 292 295 296 296 295 297 294 289 285 284 281 276 273 268 260 252 244 238 234 229 226
294 294 295 295 295 295 295 294 294 294 292 290 289 286 285 283 283 282 281 282 284 286 289 293 294 293 293 295 294 289 284 282 277 274 271 265 258 250 243 237 233 228 226
295 295 295 295 295 295 294 294 293 291 290 288 286 284 282 280 280 279 280 280 282 286 289 291 292 293 293 294 293 288 282 279 275 271 266 262 257 248 240 235 230 226 221
296 296 296 296 295 295 294 293 292 291 289 286 283 281 279 277 276 276 275 275 280 284 286 290 293 294 294 294 292 289 281 274 270 266 262 257 251 242 235 230 224 220 218
297 297 297 297 296 295 293 291 289 288 287 284 279 277 276 273 273 274 273 275 279 282 287 289 291 292 293 293 291 287 279 271 263 262 259 253 246 238 232 228 221 218 218
Height
5851 5849 5848 5846 5844 5842 5839 5836 5833 5830 5826 5823 5819 5815 5811 5807 5803 5799 5795 5791 5787 5783 5780 5776 5773 5770 5768 5766 5765 5764 5764 5764 5765 5765 5765 5767 5769 5771 5773 5776 5779 5782 5785
5848 5846 5844 5843 5840 5838 5835 5832 5828 5825 5821 5818 5814 5810 5805 5801 5796 5792 5787 5783 5778 5774 5770 5766 5763 5760 5758 5755 5754 5753 5752 5752 5753 5754 5754 5755 5757 5759 5762 5765 5768 5771 5774
5844 5843 5841 5839 5836 5833 5830 5827 5823 5820 5816 5812 5808 5803 5799 5794 5789 5784 5779 5774 5769 5764 5760 5756 5753 5750 5747 5745 5743 5742 5741 5740 5741 5742 5743 5743 5745 5747 5750 5753 5756 5759 5763
5840 5839 5836 5834 5831 5828 5825 5822 5818 5814 5810 5806 5801 5796 5792 5787 5781 5776 5770 5765 5760 5755 5750 5746 5743 5739 5736 5734 5732 5730 5729 5729 5729 5730 5730 5731 5733 5734 5737 5741 5744 5747 5751
5836 5834 5831 5829 5826 5823 5819 5816 5812 5808 5804 5799 5794 5789 5784 5779 5773 5767 5762 5756 5750 5745 5740 5736 5732 5729 5725 5723 5721 5719 5717 5717 5716 5717 5718 5719 5720 5722 5725 5728 5731 5735 5739
5830 5828 5826 5823 5820 5817 5813 5809 5805 5801 5796 5792 5787 5781 5776 5770 5764 5758 5752 5746 5741 5735 5731 5726 5722 5718 5715 5712 5709 5707 5706 5705 5705 5705 5706 5707 5708 5710 5712 5715 5719 5723 5728
5825 5822 5820 5817 5813 5810 5806 5802 5798 5793 5789 5784 5778 5773 5767 5761 5755 5749 5743 5737 5731 5726 5721 5716 5712 5708 5704 5701 5698 5696 5695 5693 5693 5693 5694 5695 5696 5698 5700 5703 5706 5710 5715
5818 5815 5813 5809 5806 5802 5799 5795 5790 5785 5780 5775 5770 5764 5758 5752 5746 5739 5733 5727 5721 5715 5711 5706 5702 5698 5693 5690 5688 5686 5684 5682 5681 5681 5682 5683 5684 5685 5688 5691 5694 5698 5703
5811 5808 5805 5802 5798 5794 5790 5786 5781 5776 5771 5766 5761 5755 5749 5742 5736 5730 5723 5717 5711 5706 5700 5696 5692 5688 5683 5680 5678 5675 5673 5671 5669 5669 5670 5670 5671 5673 5675 5678 5682 5686 5690
5803 5800 5797 5793 5790 5785 5781 5777 5772 5767 5762 5756 5751 5745 5739 5732 5726 5720 5713 5708 5702 5696 5691 5686 5681 5677 5674 5670 5667 5665 5663 5660 5658 5658 5658 5658 5659 5660 5662 5665 5668 5672 5677
5795 5792 5788 5784 5780 5776 5772 5767 5762 5757 5752 5746 5741 5734 5728 5722 5716 5710 5703 5698 5692 5686 5681 5676 5671 5667 5663 5660 5657 5654 5651 5649 5647 5646 5645 5644 5645 5646 5648 5651 5655 5659 5664
5786 5782 5778 5774 5770 5766 5761 5756 5751 5746 5741 5735 5730 5724 5718 5712 5706 5700 5693 5687 5682 5676 5671 5666 5661 5657 5653 5650 5646 5643 5640 5638 5635 5633 5632 5632 5632 5633 5635 5638 5642 5646 5652
5775 5772 5768 5764 5759 5755 5751 5746 5740 5735 5730 5724 5719 5713 5707 5701 5695 5689 5683 5677 5672 5666 5661 5656 5651 5647 5643 5640 5636 5633 5630 5627 5624 5622 5621 5620 5620 5621 5623 5626 5629 5634 5639
5764 5761 5756 5753 5748 5744 5739 5734 5729 5724 5718 5713 5707 5701 5696 5690 5684 5678 5672 5667 5661 5656 5651 5646 5641 5637 5633 5630 5626 5623 5619 5616 5614 5612 5610 5608 5608 5609 5611 5614 5617 5621 5627
5753 5749 5745 5741 5736 5732 5727 5722 5717 5712 5706 5701 5695 5689 5684 5678 5672 5666 5661 5656 5651 5646 5641 5636 5632 5627 5624 5620 5617 5613 5610 5607 5604 5602 5600 5598 5598 5598 5600 5602 5605 5609 5615
5741 5737 5733 5728 5724 5719 5715 5710 5704 5699 5694 5688 5682 5676 5671 5665 5660 5654 5649 5644 5639 5635 5630 5626 5622 5618 5614 5611 5607 5604 5601 5597 5595 5593 5591 5589 5589 5589 5590 5592 5594 5599 5604
5728 5724 5720 5716 5711 5706 5701 5696 5692 5687 5680 5674 5669 5663 5657 5652 5647 5642 5637 5632 5628 5624 5620 5616 5612 5608 5605 5601 5598 5595 5592 5589 5586 5584 5583 5581 5580 5580 5581 5583 5585 5589 5594
5715 5711 5706 5702 5697 5692 5687 5682 5677 5672 5667 5661 5655 5649 5644 5639 5634 5629 5625 5621 5617 5613 5610 5606 5602 5599 5595 5592 5589 5586 5583 5581 5578 5576 5575 5574 5573 5572 5573 5575 5578 5581 5585
5701 5697 5692 5687 5682 5677 5672 5667 5662 5656 5651 5646 5641 5636 5630 5625 5621 5618 5614 5611 5607 5604 5600 5597 5593 5590 5587 5583 5580 5578 5575 5572 5570 5568 5567 5566 5565 5565 5566 5568 5570 5573 5577
5686 5681 5676 5672 5667 5662 5656 5651 5646 5641 5636 5631 5626 5622 5617 5613 5609 5606 5603 5600 5597 5594 5591 5587 5584 5581 5578 5575 5572 5570 5567 5565 5563 5561 5560 5559 5558 5558 5559 5561 5563 5566 5570
5670 5665 5660 5656 5650 5645 5640 5635 5630 5624 5620 5615 5611 5607 5603 5600 5597 5595 5592 5590 5587 5585 5582 5579 5576 5572 5570 5567 5564 5562 5560 5558 5556 5554 5553 5552 5552 5552 5553 5555 5557 5560 5563
5654 5649 5644 5639 5634 5629 5623 5618 5613 5608 5604 5600 5596 5593 5590 5588 5586 5584 5582 5580 5578 5575 5573 5570 5567 5564 5562 5559 5557 5555 5553 5551 5549 5548 5548 5547 5546 5547 5547 5549 5551 5553 5557
5637 5632 5627 5621 5616 5611 5606 5601 5596 5592 5588 5585 5582 5580 5578 5575 5574 5572 5571 5570 5568 5567 5565 5562 5560 5557 5555 5552 5550 5548 5546 5545 5544 5543 5542 5542 5542 5542 5542 5544 5545 5548 5551
5620 5615 5609 5604 5599 5594 5589 5585 5581 5577 5574 5571 5569 5567 5565 5564 5563 5562 5561 5561 5560 5559 5557 5555 5553 5550 5548 5546 5544 5542 5541 5539 5538 5538 5538 5537 5537 5537 5538 5539 5541 5543 5546
5602 5597 5592 5587 5582 5578 5573 5570 5566 5563 5560 5558 5557 5555 5554 5554 5554 5553 5553 5553 5552 5551 5549 5548 5546 5544 5542 5540 5538 5537 5535 5534 5534 5533 5533 5533 5533 5533 5534 5536 5537 5540 5542
5585 5580 5575 5571 5566 5562 5559 5556 5554 5551 5549 5548 5547 5546 5546 5545 5546 5546 5546 5545 5545 5544 5543 5541 5540 5538 5536 5534 5533 5531 5530 5529 5529 5529 5528 5529 5529 5530 5531 5532 5534 5537 5539